OBJECT AY, 61781

Orbit data source: Space-Track

You're viewing an Uncataloged Satellite

Recently launched and/or uncataloged satellites may have evolving metadata. Metadata may include but not limited to: Owner, Maufacturer, Bus, Motor, and Mission.

OBJECT AY, 61781 is a satellite in SSO that was launched on Mon, 04 Nov 2024 UTC via a SOYUZ-2-1B launch vehicle from the Vostochny Cosmodrome (VOSTO). Unknown objects in Earth's orbit typically refer to objects detected orbiting the Earth but have not yet been identified or cataloged. These objects could be anything from previously untracked satellites, spent rocket stages, debris from satellite collisions, or even natural meteoroids temporarily captured by Earth's gravity.

Loading next visibility...
OBJECT AY details
Identifier
61781, 2024-199AY
Orbit
SSO
Last TLE update6 hours ago
Origin
Flag of TBDAMGU/HARB (TBD)
ManufacturerAMGU/HARB
MissionOperational spacecraft
Bus & MotorCUBESAT 12U, Unknown motor
Mass~15 kg wet, ~15 kg dry
Launch date (UTC)
2024-11-04 (3 months ago)
Launch vehicle
SOYUZ-2-1B
Launch site
Vostochny Cosmodrome (VOSTO)
Object typeUnknown
Shape & HBRUnknown
Radar Cross SectionSmall (<0.1 m²)

Expand to show TLE details & history

TLE from 6 hours ago
0 OBJECT AY
1 61781U 24199AY  25025.58571380  .00015002  00000-0  59812-3 0  9995
2 61781  97.3765 255.1219 0016120 320.8391  39.1680 15.25175514 56287
Epoch: 2025-01-25T14:03Z
Definitive object data (Epoch: 2025-01-25T14:03:25.672Z)
Latitude0.00005°
Longitude-80.86748°
Altitude484.778 km
Speed7.628 km/s
True Right ascension17h 00m 29s
True Declination0° 00' 00"
Sunlit
Object was in daylight at TLE epoch
Visualization TLE readout
Latitude-64.31324°
Longitude83.84448°
Altitude511.91 km
Speed7.608 km/s
Apparent Right ascension07h 20m 11s
Apparent Declination-58° 40' 56"
Sunlit
Object is in daylight
Visualization observer readout
Local Sidereal Time21:12:14
Azimuth145.916° SSE
Elevation-64.176°
Doppler factor1
Orbital elements
Apogee altitude498.283 km
Perigee altitude476.149 km
Semi-major axis6,865.353 km
Eccentricity0.001612
Inclination97.3765°
RAAN255.1219°
Arg. of periapsis320.8391°
True anomaly39.28485°
Mean anomaly39.168°
Eccentric anomaly39.22641°
Mean motion3.81548 °/min
BSTAR0.00059812
Orbital period94.35 mins
Loading maneuver chart data...
Loading historical data...
Loading historical data...
Loading historical data...
Loading historical data...
Loading historical data...
Loading historical data...
Loading historical data...

OBJECT AY Visibility forecast

Observer location: undefined°, undefined

Span
Click to sort rows by Start time (UTC) header in descending order
Start Az.
Max El. time (UTC)
Max El. Az.
Max El.
End time (UTC)
End Az.
4 mins2025-01-26 03:14:13.737Z54.514° ENE2025-01-26 03:16:13.737Z94.011° ESE19.033°2025-01-26 03:18:13.737Z134.085° SE
4 mins2025-01-26 04:48:13.737Z324.708° NNW2025-01-26 04:50:13.737Z276.974° WNW21.107°2025-01-26 04:52:13.737Z240.598° WSW
5 mins2025-01-26 15:23:13.737Z180.965° SSW2025-01-26 15:25:13.737Z233.729° WSW41.694°2025-01-26 15:28:13.737Z339.749° N
|